Simultaneous Nadir Overpasses (SNOs) Predictions

Prediction of SNOs between GOES-14 and NPP Satellite Orbit:

Table of predicted SNOs for the next 14.0 days since TLE Epoch: 5/11/2024
Index Date Time (GOES-14) GOES-14 Lat,Lon NPP Lat,Lon Distance(km) Time Diff (sec)
1 05/11/2024 08:31:03 0.15,-108.67 -0.23,-106.86 205.70 80
2 05/12/2024 20:52:59 -0.13,-108.68 -0.89,-112.18 398.29 80
3 05/13/2024 20:36:53 -0.14,-108.69 0.08,-107.63 119.38 80
4 05/15/2024 08:55:59 0.12,-108.69 1.09,-112.90 480.05 80
5 05/16/2024 08:39:53 0.13,-108.70 0.06,-108.37 37.40 80
6 05/18/2024 20:40:22 -0.13,-108.71 -0.23,-109.13 48.68 80
7 05/19/2024 20:24:16 -0.14,-108.71 0.76,-104.59 469.33 80
8 05/21/2024 08:43:22 0.11,-108.73 0.38,-109.86 129.63 80
9 05/22/2024 08:27:17 0.12,-108.73 -0.66,-105.33 387.76 80
10 05/23/2024 20:46:31 -0.09,-108.72 -0.50,-110.63 217.32 80
11 05/24/2024 20:30:24 -0.11,-108.72 0.50,-106.09 300.30 80
